Location: Iesi
(43.5167°N, 13.2333°E)
Time: 19:22:38
(UTC+00:00)

USA 238 - Pass Details

Date: 08 August 2020
Orbit: 1006 x 1206 km, 63.4° (Epoch: 19 September)

Event Time Altitude Azimuth Distance (km) Brightness Sun altitude
Rises 20:28:43 0° 204° (SSW) 3,726 6.3 -19.8°
Reaches altitude 10° 20:31:16 10° 202° (SSW) 2,789 5.6 -20.1°
Maximum altitude 20:37:45 67° 121° (ESE) 1,118 3.5 -20.9°
Drops below altitude 10° 20:44:32 10° 41° (NE) 2,909 6.1 -21.7°
Sets 20:47:15 0° 39° (NE) 3,898 6.8 -22.0°
